FW2479 Franklin MA US current weather conditions

sailwx.info

Wind from 289

Air temperature -10.6° C
Dewpoint -16.4° C

Last reported at 2020-Jan-21 06:06 UTC.
Time now 2020-Jan-21 06:44 UTC

Location: N 42°05' W 071°24'.
View on Google Maps.

See reports from other nearby stations

  
Tides and Currents Weather Stations Pressure Air Temp Water Temp Dewpoint Dewpoint Depression Visibility Wind Speed Wind Dir Waves Ship Positions
date/time (UTC)wind fromknots sea level pressurealtimeterstation pressurevisibilityair tempwater tempwave heightnotes
2020-Jan-21 06:06 289 -10.6
2020-Jan-21 06:01 289 -10.6
2020-Jan-21 05:56 289 0 gusting 2 -10.6
2020-Jan-21 05:51 289 0 gusting 2 -10.6
2020-Jan-21 05:46 289 -10.6
2020-Jan-21 05:41 289 0 gusting 1 -10.6
2020-Jan-21 05:36 289 0 gusting 1 -10.6
2020-Jan-21 05:31 289 0 gusting 2 -10.6
2020-Jan-21 05:26 289 0 gusting 2 -10.0
2020-Jan-21 05:21 289 0 gusting 1 -10.0
2020-Jan-21 05:16 289 -10.0
2020-Jan-21 05:11 289 -10.0
2020-Jan-21 05:06 289 0 gusting 2 -10.0
2020-Jan-21 05:01 288 0 gusting 2 -10.0
2020-Jan-21 04:56 348 -10.0
2020-Jan-21 04:51 348 -10.0
2020-Jan-21 04:46 348 -9.4
2020-Jan-21 04:41 348 -9.4
2020-Jan-21 04:36 305 0 gusting 1 -9.4
2020-Jan-21 04:31 305 0 gusting 1 -9.4
2020-Jan-21 04:26 305 -9.4
2020-Jan-21 04:21 305 -9.4
2020-Jan-21 04:16 305 -8.9
2020-Jan-21 04:11 305 0 gusting 2 -8.9
2020-Jan-21 04:06 305 -8.9
2020-Jan-21 04:01 305 -8.9
2020-Jan-21 03:56 305 0 gusting 2 -8.9
2020-Jan-21 03:51 314 0 gusting 2 -8.9
2020-Jan-21 03:46 314 0 gusting 2 -8.9
2020-Jan-21 03:41 313 0 gusting 2 -8.9
2020-Jan-21 03:36 299 -8.9
2020-Jan-21 03:31 299 0 gusting 1 -8.3
2020-Jan-21 03:26 299 -8.3
2020-Jan-21 03:21 299 -8.3
2020-Jan-21 03:16 327 -8.3
2020-Jan-21 03:11 337 0 gusting 3 -8.3
2020-Jan-21 03:06 309 -8.3
2020-Jan-21 03:01 309 0 gusting 3 -8.3
2020-Jan-21 02:56 317 0 gusting 3 -7.8
2020-Jan-21 02:51 317 1 gusting 3 -7.8
2020-Jan-21 02:46 323 0 gusting 2 -7.8
2020-Jan-21 02:41 323 0 gusting 2 -7.8
2020-Jan-21 02:36 323 0 gusting 2 -7.8
2020-Jan-21 02:31 323 0 gusting 2 -7.8
2020-Jan-21 02:26 319 0 gusting 2 -7.8
2020-Jan-21 02:21 319 -7.2
2020-Jan-21 02:16 319 -7.2
2020-Jan-21 02:11 319 -7.2
2020-Jan-21 02:06 319 0 gusting 2 -7.2
2020-Jan-21 02:01 319 -7.2
2020-Jan-21 01:56 314 0 gusting 2 -7.2
2020-Jan-21 01:51 330 0 gusting 3 -6.7
2020-Jan-21 01:46 298 1 gusting 4 -6.7
2020-Jan-21 01:41 337 1 gusting 4 -6.7
2020-Jan-21 01:36 337 1 gusting 3 -6.7
2020-Jan-21 01:31 314 1 gusting 6 -6.7
2020-Jan-21 01:26 312 2 gusting 6 -6.7
2020-Jan-21 01:21 -6.7
2020-Jan-21 01:16 327 0 gusting 3 -6.7
2020-Jan-21 01:11 351 0 gusting 3 -6.7
2020-Jan-21 01:06 327 0 gusting 3 -6.7
2020-Jan-21 01:01 316 1 gusting 4 -6.7
2020-Jan-21 00:56 309 0 gusting 4 -6.7
2020-Jan-21 00:51 329 1 gusting 4 -6.7
2020-Jan-21 00:46 327 -6.1
2020-Jan-21 00:41 321 0 gusting 3 -6.1
2020-Jan-21 00:36 023 1 gusting 2 -6.1
2020-Jan-21 00:31 329 0 gusting 2 -6.1
2020-Jan-21 00:26 329 1 gusting 2 -6.1
2020-Jan-21 00:21 331 0 gusting 3 -6.1
2020-Jan-21 00:16 310 1 gusting 3 -5.6
2020-Jan-21 00:11 324 1 gusting 5 -5.6
2020-Jan-21 00:06 300 2 gusting 6 -5.6
2020-Jan-21 00:01 -5.6
2020-Jan-20 23:56 298 1 gusting 4 -6.1
2020-Jan-20 23:51 344 -5.6
2020-Jan-20 23:46 341 1 gusting 4 -5.6
2020-Jan-20 23:41 319 2 gusting 4 -5.6
2020-Jan-20 23:36 316 0 gusting 3 -5.6
2020-Jan-20 23:31 -5.6
2020-Jan-20 23:26 345 2 gusting 3 -5.6
2020-Jan-20 23:21 092 1 gusting 4 -5.6
2020-Jan-20 23:16 296 1 gusting 4 -5.6
2020-Jan-20 23:11 331 1 gusting 3 -5.6
2020-Jan-20 23:06 306 0 gusting 3 -5.6
2020-Jan-20 23:01 341 -5.6
2020-Jan-20 22:56 341 -5.6
2020-Jan-20 22:51 341 -5.6
2020-Jan-20 22:46 341 -5.6
2020-Jan-20 22:41 341 -5.0
2020-Jan-20 22:36 341 -5.0
2020-Jan-20 22:31 341 -5.0
2020-Jan-20 22:26 341 0 gusting 1 -4.4
2020-Jan-20 22:21 344 -4.4
2020-Jan-20 22:16 344 -4.4
2020-Jan-20 22:11 344 -4.4
2020-Jan-20 22:06 348 0 gusting 4 -4.4
2020-Jan-20 22:01 348 1 gusting 4 -3.9
2020-Jan-20 21:56 041 0 gusting 4 -3.9
2020-Jan-20 21:51 314 1 gusting 4 -3.9
2020-Jan-20 21:46 298 1 gusting 5 -3.9
2020-Jan-20 21:41 056 1 gusting 5 -3.9
2020-Jan-20 21:36 319 1 gusting 8 -3.9
2020-Jan-20 21:31 272 3 gusting 8 -3.3
2020-Jan-20 21:26 288 2 gusting 4 -3.3
2020-Jan-20 21:21 155 1 gusting 4 -3.3
2020-Jan-20 21:16 293 1 gusting 7 -3.3
2020-Jan-20 21:11 288 2 gusting 7 -3.3
2020-Jan-20 21:06 333 1 gusting 5 -2.8
2020-Jan-20 21:01 347 2 gusting 4 -2.8
2020-Jan-20 20:56 317 1 gusting 5 -2.8
2020-Jan-20 20:51 330 2 gusting 5 -2.8
2020-Jan-20 20:46 104 2 gusting 10 -2.8
2020-Jan-20 20:41 283 3 gusting 10 -2.8
2020-Jan-20 20:36 321 5 gusting 7 -2.2
2020-Jan-20 20:31 037 1 gusting 6 -2.2
2020-Jan-20 20:26 310 2 gusting 8 -2.2
2020-Jan-20 20:21 296 2 gusting 9 -2.2
2020-Jan-20 20:16 -2.2
2020-Jan-20 20:11 312 1 gusting 9 -2.2
2020-Jan-20 20:06 -2.2
2020-Jan-20 20:01 279 1 gusting 9 -2.2
2020-Jan-20 19:56 313 3 gusting 11 -2.2
2020-Jan-20 19:51 337 3 gusting 11 -2.2
2020-Jan-20 19:46 302 2 gusting 8 -2.2
2020-Jan-20 19:41 052 1 gusting 8 -2.2
2020-Jan-20 19:36 221 1 gusting 11 -2.2
2020-Jan-20 19:31 199 4 gusting 11 -2.2
2020-Jan-20 19:26 258 3 gusting 7 -2.2
2020-Jan-20 19:21 300 3 gusting 8 -2.2
2020-Jan-20 19:16 298 3 gusting 8 -2.2
2020-Jan-20 19:11 233 2 gusting 8 -2.2
2020-Jan-20 19:06 245 3 gusting 5 -2.2
2020-Jan-20 19:01 214 1 gusting 6 -2.2
2020-Jan-20 18:56 138 2 gusting 8 -2.2
2020-Jan-20 18:51 130 3 gusting 9 -2.2
2020-Jan-20 18:46 348 3 gusting 9 -2.2
2020-Jan-20 18:41 343 2 gusting 5 -2.2
2020-Jan-20 18:36 247 1 gusting 7 -2.2
2020-Jan-20 18:31 338 3 gusting 7 -2.2
2020-Jan-20 18:26 265 2 gusting 10 -2.8
2020-Jan-20 18:21 298 4 gusting 10 -2.8
2020-Jan-20 18:16 314 2 gusting 9 -2.8
2020-Jan-20 18:11 319 3 gusting 9 -3.3
2020-Jan-20 18:06 274 3 gusting 9 -3.3
2020-Jan-20 18:01 292 5 gusting 9 -2.8
2020-Jan-20 17:56 271 2 gusting 6 -2.8
2020-Jan-20 17:51 056 1 gusting 5 -2.8
2020-Jan-20 17:46 228 1 gusting 8 -2.8
2020-Jan-20 17:41 212 2 gusting 8 -3.3
2020-Jan-20 17:36 -3.3
2020-Jan-20 17:31 042 3 gusting 7 -3.3
2020-Jan-20 17:26 281 2 gusting 9 -3.9
2020-Jan-20 17:21 202 1 gusting 9 -3.9
2020-Jan-20 17:16 340 3 gusting 8 -3.9
2020-Jan-20 17:11 278 3 gusting 8 -3.9
2020-Jan-20 17:06 024 2 gusting 8 -4.4
2020-Jan-20 17:01 333 1 gusting 7 -4.4
2020-Jan-20 16:56 118 3 gusting 10 -4.4
2020-Jan-20 16:51 278 3 gusting 10 -4.4
2020-Jan-20 16:46 261 4 gusting 9 -4.4
2020-Jan-20 16:41 334 3 gusting 9 -4.4
2020-Jan-20 16:36 069 3 gusting 9 -4.4
2020-Jan-20 16:31 329 2 gusting 9 -5.0
2020-Jan-20 16:26 300 3 gusting 9 -5.0
2020-Jan-20 16:21 307 2 gusting 6 -5.0
2020-Jan-20 16:16 065 1 gusting 9 -5.0
2020-Jan-20 16:11 302 3 gusting 9 -5.6
2020-Jan-20 16:06 230 1 gusting 10 -5.6
2020-Jan-20 16:01 034 3 gusting 9 -5.6
2020-Jan-20 15:56 219 4 gusting 10 -5.6
2020-Jan-20 15:51 093 3 gusting 10 -5.6
2020-Jan-20 15:46 254 4 gusting 10 -5.6
2020-Jan-20 15:41 234 0 gusting 7 -6.1
2020-Jan-20 15:36 283 3 gusting 7 -6.7
2020-Jan-20 15:31 324 3 gusting 7 -6.7
2020-Jan-20 15:26 310 2 gusting 13 -6.7
2020-Jan-20 15:21 313 3 gusting 13 -7.2
2020-Jan-20 15:16 316 3 gusting 9 -7.2
2020-Jan-20 15:11 199 1 gusting 7 -7.2
2020-Jan-20 15:06 055 3 gusting 7 -7.2
2020-Jan-20 15:01 286 2 gusting 6 -7.2
2020-Jan-20 14:56 -7.8
2020-Jan-20 14:51 172 1 gusting 7 -7.8
2020-Jan-20 14:46 293 1 gusting 6 -7.8
2020-Jan-20 14:41 357 1 gusting 8 -8.3
2020-Jan-20 14:38 065 2 gusting 8 -8.3
2020-Jan-20 14:31 262 3 gusting 6 -8.3
2020-Jan-20 14:26 347 1 gusting 7 -8.3
2020-Jan-20 14:21 250 2 gusting 7 -8.3
2020-Jan-20 14:16 282 2 gusting 5 -8.3
2020-Jan-20 14:11 276 3 gusting 5 -8.9
2020-Jan-20 14:06 302 2 gusting 6 -8.9
2020-Jan-20 14:01 007 2 gusting 6 -8.9
2020-Jan-20 13:56 044 2 gusting 7 -8.9
2020-Jan-20 13:51 059 1 gusting 7 -8.9
2020-Jan-20 13:46 278 0 gusting 3 -8.9
2020-Jan-20 13:41 223 1 gusting 8 -9.4
2020-Jan-20 13:36 299 2 gusting 8 -9.4
2020-Jan-20 13:31 313 3 gusting 6 -9.4
2020-Jan-20 13:26 290 3 gusting 6 -9.4
2020-Jan-20 13:21 314 0 gusting 2 -9.4
2020-Jan-20 13:16 326 0 gusting 3 -9.4
2020-Jan-20 13:11 028 0 gusting 3 -9.4
2020-Jan-20 13:06 199 1 gusting 3 -9.4
2020-Jan-20 13:01 313 1 gusting 3 -9.4
2020-Jan-20 12:56 353 0 gusting 3 -9.4
2020-Jan-20 12:51 331 0 gusting 7 -9.4
2020-Jan-20 12:46 274 0 gusting 7 -9.4
2020-Jan-20 12:41 241 1 gusting 3 -9.4
2020-Jan-20 12:36 307 1 gusting 3 -10.0
2020-Jan-20 12:31 293 0 gusting 3 -10.0
2020-Jan-20 12:26 234 1 gusting 5 -10.0
2020-Jan-20 12:21 314 1 gusting 5 -10.0
2020-Jan-20 12:16 341 0 gusting 4 -10.0
2020-Jan-20 12:11 -10.0
2020-Jan-20 12:06 302 0 gusting 4 -10.0
2020-Jan-20 12:01 326 1 gusting 5 -10.0
2020-Jan-20 11:56 316 1 gusting 4 -10.0
2020-Jan-20 11:51 323 0 gusting 4 -10.0
2020-Jan-20 11:46 017 0 gusting 2 -10.0
2020-Jan-20 11:41 351 0 gusting 5 -10.0
2020-Jan-20 11:36 062 0 gusting 5 -9.4
2020-Jan-20 11:31 013 0 gusting 2 -9.4
2020-Jan-20 11:26 334 -9.4
2020-Jan-20 11:21 357 1 gusting 5 -9.4
2020-Jan-20 11:16 329 1 gusting 6 -9.4
2020-Jan-20 11:11 348 2 gusting 4 -9.4
2020-Jan-20 11:06 217 0 gusting 3 -9.4
2020-Jan-20 11:01 220 1 gusting 4 -9.4
2020-Jan-20 10:56 231 0 gusting 5 -9.4
2020-Jan-20 10:51 319 1 gusting 5 -9.4
2020-Jan-20 10:46 323 1 gusting 5 -9.4
2020-Jan-20 10:41 326 0 gusting 5 -9.4
2020-Jan-20 10:36 014 0 gusting 5 -9.4
2020-Jan-20 10:31 285 1 gusting 4 -9.4
2020-Jan-20 10:26 296 1 gusting 3 -9.4
2020-Jan-20 10:21 341 1 gusting 4 -9.4
2020-Jan-20 10:16 323 1 gusting 5 -8.9
2020-Jan-20 10:11 310 1 gusting 6 -8.9
2020-Jan-20 10:06 296 1 gusting 8 -8.9
2020-Jan-20 10:01 320 3 gusting 8 -8.9
2020-Jan-20 09:56 317 2 gusting 7 -8.9
2020-Jan-20 09:51 316 1 gusting 7 -8.9
2020-Jan-20 09:46 326 1 gusting 6 -8.9
2020-Jan-20 09:41 323 2 gusting 4 -8.9
2020-Jan-20 09:36 354 1 gusting 8 -8.9
2020-Jan-20 09:31 241 1 gusting 8 -8.9
2020-Jan-20 09:26 324 2 gusting 8 -8.9
2020-Jan-20 09:21 327 2 gusting 8 -8.9
2020-Jan-20 09:16 -8.3
2020-Jan-20 09:11 329 2 gusting 5 -8.9
2020-Jan-20 09:06 283 0 gusting 4 -8.3
2020-Jan-20 09:01 326 2 gusting 4 -8.3
2020-Jan-20 08:56 309 1 gusting 4 -8.3
2020-Jan-20 08:51 303 1 gusting 5 -8.3
2020-Jan-20 08:46 278 1 gusting 7 -8.3
2020-Jan-20 08:41 278 2 gusting 7 -8.3
2020-Jan-20 08:36 258 3 gusting 7 -8.3
2020-Jan-20 08:31 293 1 gusting 7 -8.3
2020-Jan-20 08:26 319 3 gusting 8 -8.3
2020-Jan-20 08:21 312 3 gusting 7 -8.3
2020-Jan-20 08:16 121 1 gusting 7 -8.3
2020-Jan-20 08:11 -8.3
2020-Jan-20 08:06 226 2 gusting 12 -8.3
2020-Jan-20 08:01 309 2 gusting 6 -8.3
2020-Jan-20 07:56 302 1 gusting 5 -7.8
2020-Jan-20 07:51 279 1 gusting 5 -7.8
2020-Jan-20 07:46 324 2 gusting 8 -7.8
2020-Jan-20 07:41 275 2 gusting 7 -7.8
2020-Jan-20 07:36 329 3 gusting 4 -7.8
2020-Jan-20 07:31 290 2 gusting 5 -7.8
2020-Jan-20 07:26 302 1 gusting 5 -7.8
2020-Jan-20 07:21 125 1 gusting 3 -7.8
2020-Jan-20 07:16 011 0 gusting 3 -7.8
2020-Jan-20 07:11 282 1 gusting 8 -7.8
2020-Jan-20 07:05 175 1 gusting 8 -7.8
2020-Jan-20 07:00 351 1 gusting 4 -7.2
2020-Jan-20 06:55 279 1 gusting 10 -7.2
2020-Jan-20 06:50 321 1 gusting 6 -7.2
2020-Jan-20 06:45 224 1 gusting 3 -7.2
2020-Jan-20 06:40 309 0 gusting 5 -7.2
2020-Jan-20 06:35 303 1 gusting 7 -7.2
2020-Jan-20 06:30 -7.2
2020-Jan-20 06:25 243 2 gusting 10 -7.2
2020-Jan-20 06:20 -7.2
2020-Jan-20 06:15 069 3 gusting 12 -7.2
2020-Jan-20 06:10 017 3 gusting 12 -6.7
2020-Jan-20 06:05 327 0 gusting 8 -6.7
2020-Jan-20 06:00 333 2 gusting 6 -6.7
2020-Jan-20 05:55 230 2 gusting 6 -6.7
2020-Jan-20 05:50 123 1 gusting 6 -6.7
2020-Jan-20 05:45 302 2 gusting 9 -6.1
2020-Jan-20 05:40 250 0 gusting 9 -6.1
2020-Jan-20 05:35 164 1 gusting 8 -6.1
2020-Jan-20 05:30 290 3 gusting 10 -6.1
2020-Jan-20 05:25 039 3 gusting 10 -5.6
2020-Jan-20 05:20 055 3 gusting 10 -5.6
2020-Jan-20 05:15 295 4 gusting 8 -5.6
2020-Jan-20 05:10 235 1 gusting 9 -5.0
2020-Jan-20 05:05 -5.0
2020-Jan-20 05:00 192 2 gusting 7 -4.4
2020-Jan-20 04:55 334 2 gusting 11 -4.4
2020-Jan-20 04:50 054 5 gusting 11 -4.4
2020-Jan-20 04:45 319 3 gusting 7 -4.4
2020-Jan-20 04:40 334 3 gusting 7 -3.9
2020-Jan-20 04:35 271 3 gusting 11 -3.9
2020-Jan-20 04:30 345 3 gusting 11 -3.9
2020-Jan-20 04:25 087 2 gusting 11 -3.9
2020-Jan-20 04:20 338 2 gusting 5 -3.9
2020-Jan-20 04:15 221 1 gusting 8 -3.3
2020-Jan-20 04:10 245 1 gusting 8 -3.3
2020-Jan-20 04:05 285 3 gusting 9 -3.3
2020-Jan-20 04:00 288 3 gusting 7 -3.3
2020-Jan-20 03:55 266 2 gusting 12 -3.3
2020-Jan-20 03:50 269 5 gusting 12 -3.3
2020-Jan-20 03:45 275 3 gusting 11 -3.3
2020-Jan-20 03:40 255 2 gusting 8 -3.3
2020-Jan-20 03:35 298 3 gusting 9 -2.8
2020-Jan-20 03:30 293 2 gusting 9 -2.8
2020-Jan-20 03:25 286 3 gusting 19 -2.8
2020-Jan-20 03:20 248 4 gusting 19 -2.8
2020-Jan-20 03:15 130 5 gusting 12 -2.2
2020-Jan-20 03:10 327 2 gusting 11 -1.7
2020-Jan-20 03:05 292 2 gusting 13 -1.7
2020-Jan-20 03:00 228 5 gusting 13 -1.7
2020-Jan-20 02:55 302 4 gusting 11 -1.7
2020-Jan-20 02:50 316 3 gusting 8 -1.7
2020-Jan-20 02:45 320 4 gusting 10 -1.7
2020-Jan-20 02:40 296 6 gusting 11 -1.7
2020-Jan-20 02:35 314 3 gusting 12 -1.7
2020-Jan-20 02:30 316 5 gusting 10 -1.7
2020-Jan-20 02:25 323 3 gusting 10 -1.7
2020-Jan-20 02:20 295 3 gusting 10 -1.7
2020-Jan-20 02:15 299 2 gusting 6 -1.7
2020-Jan-20 02:10 295 2 gusting 6 -1.1
2020-Jan-20 02:05 354 1 gusting 9 -1.1
2020-Jan-20 02:00 285 2 gusting 9 -1.1
2020-Jan-20 01:55 310 2 gusting 11 -1.1
2020-Jan-20 01:50 303 4 gusting 11 -1.1
2020-Jan-20 01:45 310 4 gusting 10 -1.1
2020-Jan-20 01:40 314 4 gusting 10 -1.1
2020-Jan-20 01:35 331 4 gusting 10 -1.1
2020-Jan-20 01:30 281 3 gusting 7 -0.6
2020-Jan-20 01:25 295 3 gusting 10 -0.6
2020-Jan-20 01:20 271 5 gusting 13 -0.6
2020-Jan-20 01:15 300 6 gusting 13 -0.6
2020-Jan-20 01:10 299 3 gusting 7 -0.6
2020-Jan-20 01:05 334 2 gusting 7 -0.6
2020-Jan-20 01:00 299 2 gusting 4 -0.6
2020-Jan-20 00:55 302 1 gusting 7 -0.6
2020-Jan-20 00:50 004 3 gusting 7 -0.0
2020-Jan-20 00:45 296 1 gusting 11 -0.0
2020-Jan-20 00:40 298 4 gusting 11 -0.0
2020-Jan-20 00:35 -0.0
2020-Jan-20 00:30 300 3 gusting 8 -0.0
2020-Jan-20 00:25 306 3 gusting 8 0.6
2020-Jan-20 00:20 079 3 gusting 12 0.6
2020-Jan-20 00:15 257 4 gusting 12 0.6
2020-Jan-20 00:10 350 4 gusting 13 0.6
2020-Jan-20 00:05 347 6 gusting 13 0.6
2020-Jan-20 00:00 341 5 gusting 11 0.6
2020-Jan-19 23:55 157 4 gusting 11 1.1
2020-Jan-19 23:50 324 4 gusting 11 1.1
2020-Jan-19 23:45 313 2 gusting 10 1.1
2020-Jan-19 23:40 162 6 gusting 10 1.1
2020-Jan-19 23:35 319 4 gusting 13 1.1
2020-Jan-19 23:30 266 3 gusting 13 1.7
2020-Jan-19 23:25 338 2 gusting 7 1.1
2020-Jan-19 23:20 1.7
2020-Jan-19 23:15 316 2 gusting 8 1.7
2020-Jan-19 23:10 207 3 gusting 8 1.7
2020-Jan-19 23:05 317 3 gusting 7 1.7
2020-Jan-19 23:00 330 3 gusting 7 1.7
2020-Jan-19 22:55 319 4 gusting 7 1.7
2020-Jan-19 22:50 288 2 gusting 6 1.7
2020-Jan-19 22:45 290 2 gusting 9 1.7
2020-Jan-19 22:40 331 2 gusting 9 1.7
2020-Jan-19 22:35 343 2 gusting 13 1.7
2020-Jan-19 22:30 310 3 gusting 13 2.2
2020-Jan-19 22:25 334 1 gusting 12 2.2
2020-Jan-19 22:20 317 3 gusting 8 2.2
2020-Jan-19 22:15 313 3 gusting 8 2.2
2020-Jan-19 22:10 295 1 gusting 6 2.2
2020-Jan-19 22:05 357 2 gusting 6 2.2
2020-Jan-19 22:00 341 2 gusting 11 2.8
2020-Jan-19 21:55 295 3 gusting 11 2.8
2020-Jan-19 21:50 281 2 gusting 10 2.8
2020-Jan-19 21:45 293 4 gusting 10 2.8
2020-Jan-19 21:40 281 2 gusting 8 2.8
2020-Jan-19 21:35 336 3 gusting 8 2.8
2020-Jan-19 21:30 264 1 gusting 7 2.8
2020-Jan-19 21:25 326 1 gusting 8 3.3
2020-Jan-19 21:20 327 1 gusting 13 3.3
2020-Jan-19 21:15 282 4 gusting 13 3.3
2020-Jan-19 21:10 3.3
2020-Jan-19 21:05 340 3 gusting 9 3.3
2020-Jan-19 21:00 3.3
2020-Jan-19 20:55 323 1 gusting 8 3.3
2020-Jan-19 20:50 269 1 gusting 8 3.3
2020-Jan-19 20:45 288 3 gusting 7 3.3
2020-Jan-19 20:40 281 3 gusting 7 3.3
2020-Jan-19 20:34 331 2 gusting 9 3.3
2020-Jan-19 20:29 347 1 gusting 9 3.3
2020-Jan-19 20:24 327 4 gusting 9 3.9
2020-Jan-19 20:19 313 1 gusting 13 3.9
2020-Jan-19 20:14 282 6 gusting 13 3.9
2020-Jan-19 20:09 283 3 gusting 12 3.9
2020-Jan-19 20:04 343 5 gusting 12 3.9
2020-Jan-19 19:59 320 3 gusting 9 4.4
2020-Jan-19 19:54 299 2 gusting 10 4.4
2020-Jan-19 19:49 264 5 gusting 10 4.4
2020-Jan-19 19:44 295 3 gusting 10 4.4
2020-Jan-19 19:39 010 3 gusting 12 4.4
2020-Jan-19 19:34 313 4 gusting 12 4.4
2020-Jan-19 19:29 293 4 gusting 13 4.4
2020-Jan-19 19:24 276 3 gusting 13 5.0
2020-Jan-19 19:19 336 6 gusting 12 5.0
2020-Jan-19 19:14 306 3 gusting 10 5.0
2020-Jan-19 19:09 087 3 gusting 9 5.0
2020-Jan-19 19:04 255 4 gusting 12 5.0
2020-Jan-19 18:59 324 4 gusting 12 5.0
2020-Jan-19 18:54 296 5 gusting 13 5.0
2020-Jan-19 18:49 305 2 gusting 13 4.4
2020-Jan-19 18:44 355 4 gusting 10 4.4
2020-Jan-19 18:39 300 3 gusting 10 4.4
2020-Jan-19 18:34 300 3 gusting 13 4.4
2020-Jan-19 18:29 266 4 gusting 16 4.4
2020-Jan-19 18:24 292 7 gusting 16 5.0
2020-Jan-19 18:19 286 2 gusting 10 5.6
2020-Jan-19 18:14 330 5 gusting 13 5.6
2020-Jan-19 18:09 034 5 gusting 13 5.6
2020-Jan-19 18:04 303 1 gusting 10 5.6
2020-Jan-19 17:59 271 4 gusting 8 5.0
2020-Jan-19 17:54 317 4 gusting 11 5.0
2020-Jan-19 17:49 286 2 gusting 13 4.4
2020-Jan-19 17:44 337 6 gusting 14 5.0
2020-Jan-19 17:39 326 3 gusting 14 5.0
2020-Jan-19 17:34 100 3 gusting 13 5.6
2020-Jan-19 17:29 331 4 gusting 13 5.0
2020-Jan-19 17:24 319 5 gusting 13 5.0
2020-Jan-19 17:19 306 4 gusting 13 5.0
2020-Jan-19 17:14 282 4 gusting 10 5.0
2020-Jan-19 17:09 326 3 gusting 10 5.6
2020-Jan-19 17:04 5.6
2020-Jan-19 16:59 303 3 gusting 9 5.0
2020-Jan-19 16:54 303 2 gusting 10 5.0
2020-Jan-19 16:49 334 4 gusting 13 5.0
2020-Jan-19 16:44 316 3 gusting 13 5.0
2020-Jan-19 16:39 302 4 gusting 12 4.4
2020-Jan-19 16:34 305 3 gusting 8 4.4
2020-Jan-19 16:29 281 3 gusting 8 4.4
2020-Jan-19 16:24 313 5 gusting 11 4.4
2020-Jan-19 16:19 282 2 gusting 11 5.0
2020-Jan-19 16:14 307 1 gusting 8 4.4
2020-Jan-19 16:09 292 3 gusting 8 4.4
2020-Jan-19 16:04 271 1 gusting 9 4.4
2020-Jan-19 15:59 317 2 gusting 9 3.9
2020-Jan-19 15:54 351 2 gusting 11 3.9
2020-Jan-19 15:49 329 4 gusting 11 3.9
2020-Jan-19 15:44 282 0 gusting 9 3.3
2020-Jan-19 15:39 329 1 gusting 7 3.3
2020-Jan-19 15:34 303 4 gusting 7 2.8
2020-Jan-19 15:29 285 2 gusting 6 2.8
2020-Jan-19 15:24 271 2 gusting 7 2.2
2020-Jan-19 15:19 295 4 gusting 7 2.2
2020-Jan-19 15:14 295 0 gusting 3 1.7
2020-Jan-19 15:09 334 2 gusting 3 1.1
2020-Jan-19 15:04 276 1 gusting 2 1.1
2020-Jan-19 14:59 305 1.1
2020-Jan-19 14:54 286 0 gusting 4 0.6
2020-Jan-19 14:49 276 1 gusting 4 0.6
2020-Jan-19 14:44 329 0 gusting 4 -0.0
2020-Jan-19 14:39 310 1 gusting 4 -0.0
2020-Jan-19 14:34 310 0 gusting 7 -0.0
2020-Jan-19 14:29 290 2 gusting 3 -0.6
2020-Jan-19 14:24 314 1 gusting 3 -0.6
2020-Jan-19 14:19 281 -1.1
2020-Jan-19 14:14 345 -1.7
2020-Jan-19 14:09 345 -1.7
2020-Jan-19 14:04 345 -2.2
2020-Jan-19 13:59 345 -2.8
2020-Jan-19 13:54 345 -3.3
2020-Jan-19 13:49 345 -3.9
2020-Jan-19 13:44 345 -4.4
2020-Jan-19 13:39 345 -4.4
2020-Jan-19 13:34 345 -5.0
2020-Jan-19 13:29 345 -5.0
2020-Jan-19 13:24 345 -5.0
2020-Jan-19 13:19 345 -5.6
2020-Jan-19 13:14 345 -5.6
2020-Jan-19 13:09 345 -5.6
2020-Jan-19 13:04 345 -5.6
2020-Jan-19 12:59 345 -5.6
2020-Jan-19 12:54 345 -5.6
2020-Jan-19 12:49 345 -5.6
2020-Jan-19 12:44 345 -5.6
2020-Jan-19 12:39 345 -5.6
2020-Jan-19 12:34 345 -5.6
2020-Jan-19 12:29 345 -5.6
2020-Jan-19 12:24 345 -5.6
2020-Jan-19 12:19 345 -5.0
2020-Jan-19 12:14 345 -5.0
2020-Jan-19 12:09 345 -5.0
2020-Jan-19 12:04 345 -5.0
2020-Jan-19 11:59 345 -5.0
2020-Jan-19 11:54 345 -5.0
2020-Jan-19 11:49 345 -5.0
2020-Jan-19 11:44 345 -5.0
2020-Jan-19 11:39 345 -5.0
2020-Jan-19 11:34 345 0 gusting 1 -5.0
2020-Jan-19 11:29 345 -5.0
2020-Jan-19 11:24 345 -4.4
2020-Jan-19 11:19 345 -5.0
2020-Jan-19 11:14 345 -5.0
2020-Jan-19 11:09 345 -5.0
2020-Jan-19 11:04 345 -5.0
2020-Jan-19 10:59 345 -5.0
2020-Jan-19 10:54 345 -5.0
2020-Jan-19 10:49 345 -5.0
2020-Jan-19 10:44 345 -5.0
2020-Jan-19 10:39 345 -5.0
2020-Jan-19 10:34 345 -5.0
2020-Jan-19 10:29 345 -5.0
2020-Jan-19 10:24 345 -5.0
2020-Jan-19 10:19 345 -5.0
2020-Jan-19 10:14 345 -5.0
2020-Jan-19 10:09 345 -5.0
2020-Jan-19 10:04 345 -5.6
2020-Jan-19 09:59 345 -5.6
2020-Jan-19 09:54 345 -5.6
2020-Jan-19 09:49 345 -5.6
2020-Jan-19 09:44 345 -5.6
2020-Jan-19 09:39 345 -5.6
2020-Jan-19 09:34 345 -5.6
2020-Jan-19 09:29 345 -5.6
2020-Jan-19 09:24 345 -5.6
2020-Jan-19 09:19 345 -5.6
2020-Jan-19 09:14 345 -5.6
2020-Jan-19 09:09 345 -5.6
2020-Jan-19 09:04 345 -5.6
2020-Jan-19 08:59 345 -5.6
2020-Jan-19 08:54 345 -5.6
2020-Jan-19 08:49 345 -5.6
2020-Jan-19 08:44 345 -5.6
2020-Jan-19 08:39 345 -5.6
2020-Jan-19 08:34 345 -5.6
2020-Jan-19 08:29 345 -5.6
2020-Jan-19 08:24 345 -5.6
2020-Jan-19 08:19 345 0 gusting 1 -6.1
2020-Jan-19 08:14 345 -6.1
2020-Jan-19 08:09 345 -6.1
2020-Jan-19 08:04 345 0 gusting 0 -6.1
2020-Jan-19 07:59 345 -6.1
2020-Jan-19 07:54 345 0 gusting 1 -6.1
2020-Jan-19 07:49 345 -6.1
2020-Jan-19 07:44 345 -6.1
2020-Jan-19 07:39 345 -6.1
2020-Jan-19 07:34 345 0 gusting 1 -6.1
2020-Jan-19 07:29 345 -6.1
2020-Jan-19 07:24 345 -6.1
2020-Jan-19 07:19 345 -6.1
2020-Jan-19 07:14 345 -6.1
2020-Jan-19 07:09 345 -6.1
2020-Jan-19 07:04 329 -6.1
2020-Jan-19 06:59 329 0 gusting 1 -6.1
2020-Jan-19 06:54 -6.1
2020-Jan-19 06:49 -6.1
2020-Jan-19 06:44 319 0 gusting 3 -6.1
2020-Jan-19 06:39 303 0 gusting 4 -6.1
2020-Jan-19 06:34 298 1 gusting 4 -6.1
2020-Jan-19 06:29 307 1 gusting 3 -5.6
2020-Jan-19 06:24 052 1 gusting 3 -5.6
2020-Jan-19 06:19 316 1 gusting 3 -5.6
2020-Jan-19 06:14 027 1 gusting 3 -5.6
2020-Jan-19 06:09 336 0 gusting 3 -5.6
2020-Jan-19 06:04 329 0 gusting 3 -5.6